Project,Study,Ord_Occ,Event_Num,Cast_ID,Date_Time_UTC,Date_Time_PST,Lat_Dec,Lon_Dec,Sta_ID,Line,Sta,Depth,Pressure,PrQ,Temp1,Temp1Q,Temp2,Temp2Q,TempAve,Salt1,Salt1Q,Salt1_Corr,Salt2,Salt2Q,Salt2_Corr,SaltAve_Corr,Ox1,Ox1Q,Ox1_CruiseCorr,Ox1_StaCorr,Ox2,Ox2Q,Ox2_CruiseCorr,Ox2_StaCorr,OxAve_StaCorr,Ox1uM,Ox1uM_CruiseCorr,Ox1uM_StaCorr,Ox2uM,Ox2uM_CruiseCorr,Ox2uM_StaCorr,OxAveuM_StaCorr,FluorV,FluorQ,EstChl_CruiseCorr,EstChl_StaCorr,ISUSV,ISUSQ,EstNO3_CruiseCorr,EstNO3_StaCorr,SigThetaTS1,SigThetaTS1Q,SigThetaTS2,SigThetaTS2Q,BAT,XMiss,TransQ,pH,pHQ,SPAR,SPARQ,PAR,PARQ,PoT1,PoT2,DynHt,SVA,OxSat1,OxSat2,BTL_Depth,BTL_Temp,SaltB,OxB,OxBuM,Chl-a,Phaeo,NO3,NO2,NH4,PO4,SIL
CalCOFI,2101RL,015,,2101_015d,18-Jan-2021 18:03:23,18-Jan-2021 10:03:23,30.51112,-122.25196,093.3 100.0,093.3,100.0,2.000,2.014,,16.0872,,16.0876,,16.0874,33.2147,,33.2205,33.2088,,33.2108,33.2157,5.4133,,5.6655,5.7139,5.3566,,5.6872,5.6975,5.7057,236.012,247.3176,249.3965,233.539,262.9014,248.6790,249.0378,0.0311,,0.0066,0.0649, ,, , ,24.3550,,24.3504,,0.7071,83.7962,,,,1.2971E+03,,3.2469E+01,,16.0868,16.0872,-0.0034,356.262,96.101,95.091,,,,,,,,,,,,
CalCOFI,2101RL,015,,2101_015d,18-Jan-2021 18:03:45,18-Jan-2021 10:03:45,30.51112,-122.25202,093.3 100.0,093.3,100.0,3.000,3.021,,16.0878,,16.0881,,16.0880,33.2152,,33.2210,33.2091,,33.2111,33.2161,5.4132,,5.6654,5.7138,5.3181,,5.6464,5.6566,5.6852,236.003,247.3081,249.3870,231.862,262.8914,246.8959,248.1415,0.0325,,0.0181,0.0717, ,, , ,24.3553,,24.3506,,0.7081,83.7766,,,,1.3609E+03,,2.5935E+01,,16.0874,16.0876,0.0085,356.269,96.099,94.410,3,,33.2165,5.670,247.38,0.123,0.036,,,,,
CalCOFI,2101RL,015,,2101_015d,18-Jan-2021 18:03:55,18-Jan-2021 10:03:55,30.51112,-122.25206,093.3 100.0,093.3,100.0,4.000,4.028,,16.0901,,16.0902,,16.0902,33.2156,,33.2214,33.2095,,33.2115,33.2165,5.3991,,5.6506,5.6990,5.3486,,5.6787,5.6890,5.6940,235.390,246.6665,248.7437,233.190,262.2098,248.3079,248.5258,0.0332,,0.0238,0.0751, ,, , ,24.3552,,24.3504,,0.7079,83.7812,,,,1.4163E+03,,2.4745E+01,,16.0895,16.0896,0.0147,356.315,95.854,94.955,,,,,,,,,,,,
CalCOFI,2101RL,015,,2101_015d,18-Jan-2021 18:03:58,18-Jan-2021 10:03:58,30.51112,-122.25209,093.3 100.0,093.3,100.0,5.000,5.035,,16.0901,,16.0904,,16.0903,33.2156,,33.2214,33.2096,,33.2116,33.2165,5.3977,,5.6491,5.6976,5.3624,,5.6934,5.7037,5.7007,235.328,246.6016,248.6787,233.792,262.1408,248.9480,248.8134,0.0329,,0.0214,0.0737, ,, , ,24.3552,,24.3505,,0.7078,83.7817,,,,1.3934E+03,,1.8930E+01,,16.0893,16.0896,0.0185,356.342,95.829,95.200,,,,,,,,,,,,
CalCOFI,2101RL,015,,2101_015d,18-Jan-2021 18:04:00,18-Jan-2021 10:04:00,30.51112,-122.25210,093.3 100.0,093.3,100.0,6.000,6.041,,16.0900,,16.0902,,16.0901,33.2158,,33.2216,33.2098,,33.2118,33.2167,5.4224,,5.6750,5.7235,5.3731,,5.7048,5.7150,5.7193,236.406,247.7300,249.8099,234.257,263.3396,249.4424,249.6262,0.0328,,0.0206,0.0732, ,, , ,24.3554,,24.3507,,0.7068,83.8019,,,,1.3553E+03,,1.7907E+01,,16.0891,16.0893,0.0220,356.354,96.268,95.389,,,,,,,,,,,,
CalCOFI,2101RL,015,,2101_015d,18-Jan-2021 18:04:02,18-Jan-2021 10:04:02,30.51113,-122.25211,093.3 100.0,093.3,100.0,7.000,7.048,,16.0894,,16.0896,,16.0895,33.2157,,33.2215,33.2098,,33.2118,33.2167,5.4035,,5.6552,5.7036,5.3542,,5.6847,5.6950,5.6993,235.583,246.8685,248.9463,233.436,262.4244,248.5695,248.7579,0.0331,,0.0230,0.0746, ,, , ,24.3555,,24.3509,,0.7079,83.7804,,,,1.3301E+03,,1.4590E+01,,16.0883,16.0885,0.0256,356.377,95.932,95.054,,,,,,,,,,,,
CalCOFI,2101RL,015,,2101_015d,18-Jan-2021 18:04:04,18-Jan-2021 10:04:04,30.51114,-122.25212,093.3 100.0,093.3,100.0,8.000,8.055,,16.0855,,16.0860,,16.0858,33.2151,,33.2209,33.2093,,33.2113,33.2161,5.4087,,5.6606,5.7091,5.3744,,5.7062,5.7164,5.7128,235.810,247.1061,249.1845,234.315,262.6768,249.5041,249.3443,0.0340,,0.0304,0.0790, ,, , ,24.3560,,24.3513,,0.7072,83.7946,,,,1.2941E+03,,1.3386E+01,,16.0843,16.0847,0.0292,356.366,96.017,95.404,,,,,,,,,,,,
CalCOFI,2101RL,015,,2101_015d,18-Jan-2021 18:04:06,18-Jan-2021 10:04:06,30.51116,-122.25214,093.3 100.0,093.3,100.0,9.000,9.062,,16.0818,,16.0816,,16.0817,33.2146,,33.2204,33.2086,,33.2106,33.2155,5.4033,,5.6550,5.7034,5.3807,,5.7128,5.7231,5.7133,235.574,246.8591,248.9368,234.590,262.4144,249.7965,249.3667,0.0334,,0.0255,0.0761, ,, , ,24.3564,,24.3518,,0.7082,83.7750,,,,1.2879E+03,,1.2736E+01,,16.0804,16.0802,0.0328,356.353,95.913,95.508,,,,,,,,,,,,
CalCOFI,2101RL,015,,2101_015d,18-Jan-2021 18:04:09,18-Jan-2021 10:04:09,30.51118,-122.25215,093.3 100.0,093.3,100.0,10.000,10.069,,16.0818,,16.0823,,16.0821,33.2144,,33.2202,33.2086,,33.2106,33.2154,5.4075,,5.6594,5.7078,5.3461,,5.6761,5.6863,5.6971,235.758,247.0517,249.1299,233.082,262.6190,248.1931,248.6615,0.0340,,0.0304,0.0790, ,, , ,24.3563,,24.3518,,0.7076,83.7874,,,,1.2889E+03,,1.1366E+01,,16.0802,16.0807,0.0364,356.395,95.988,94.895,10,,33.2146,5.675,247.59,0.130,0.040,,,,,
CalCOFI,2101RL,015,,2101_015d,18-Jan-2021 18:04:11,18-Jan-2021 10:04:11,30.51120,-122.25216,093.3 100.0,093.3,100.0,11.000,11.076,,16.0802,,16.0787,,16.0795,33.2143,,33.2201,33.2082,,33.2102,33.2152,5.4059,,5.6577,5.7062,5.3582,,5.6889,5.6992,5.7027,235.688,246.9784,249.0565,233.609,262.5412,248.7534,248.9050,0.0351,,0.0394,0.0844, ,, , ,24.3566,,24.3522,,0.7085,83.7669,,,,1.2806E+03,,1.0516E+01,,16.0785,16.0770,0.0400,356.401,95.956,95.103,,,,,,,,,,,,
CalCOFI,2101RL,015,,2101_015d,18-Jan-2021 18:04:15,18-Jan-2021 10:04:15,30.51120,-122.25219,093.3 100.0,093.3,100.0,12.000,12.083,,16.0793,,16.0787,,16.0790,33.2142,,33.2200,33.2081,,33.2101,33.2151,5.4075,,5.6594,5.7078,5.3584,,5.6892,5.6994,5.7036,235.755,247.0485,249.1268,233.616,262.6157,248.7608,248.9438,0.0349,,0.0378,0.0834, ,, , ,24.3568,,24.3523,,0.7077,83.7837,,,,1.3003E+03,,9.9726E+00,,16.0774,16.0768,0.0442,356.415,95.982,95.106,,,,,,,,,,,,
CalCOFI,2101RL,015,,2101_015d,18-Jan-2021 18:04:23,18-Jan-2021 10:04:23,30.51120,-122.25222,093.3 100.0,093.3,100.0,13.000,13.090,,16.0898,,16.0890,,16.0894,33.2157,,33.2215,33.2097,,33.2117,33.2166,5.4089,,5.6609,5.7093,5.3895,,5.7222,5.7325,5.7209,235.820,247.1166,249.1950,234.971,262.6879,250.2016,249.6983,0.0346,,0.0353,0.0820, ,, , ,24.3556,,24.3512,,0.7072,83.7937,,,,1.2868E+03,,9.2833E+00,,16.0878,16.0870,0.0491,356.559,96.029,95.678,,,,,,,,,,,,
CalCOFI,2101RL,015,,2101_015d,18-Jan-2021 18:04:29,18-Jan-2021 10:04:29,30.51121,-122.25225,093.3 100.0,093.3,100.0,14.000,14.097,,16.0926,,16.0920,,16.0923,33.2160,,33.2218,33.2101,,33.2121,33.2170,5.3998,,5.6513,5.6998,5.3864,,5.7189,5.7292,5.7145,235.423,246.7010,248.7784,234.839,262.2465,250.0612,249.4198,0.0351,,0.0394,0.0844, ,, , ,24.3552,,24.3508,,0.7073,83.7931,,,,1.3025E+03,,9.0670E+00,,16.0903,16.0898,0.0530,356.625,95.872,95.630,,,,,,,,,,,,
CalCOFI,2101RL,015,,2101_015d,18-Jan-2021 18:04:34,18-Jan-2021 10:04:34,30.51122,-122.25228,093.3 100.0,093.3,100.0,15.000,15.104,,16.0936,,16.0937,,16.0937,33.2160,,33.2218,33.2102,,33.2122,33.2170,5.4051,,5.6569,5.7053,5.3827,,5.7150,5.7252,5.7153,235.650,246.9386,249.0166,234.678,262.4989,249.8900,249.4533,0.0342,,0.0320,0.0800, ,, , ,24.3551,,24.3506,,0.7077,83.7848,,,,1.3356E+03,,8.3654E+00,,16.0912,16.0913,0.0566,356.672,95.967,95.567,,,,,,,,,,,,
CalCOFI,2101RL,015,,2101_015d,18-Jan-2021 18:04:37,18-Jan-2021 10:04:37,30.51122,-122.25228,093.3 100.0,093.3,100.0,16.000,16.111,,16.0941,,16.0944,,16.0943,33.2161,,33.2219,33.2103,,33.2123,33.2171,5.4013,,5.6529,5.7013,5.3678,,5.6991,5.7094,5.7054,235.487,246.7680,248.8455,234.028,262.3176,249.1989,249.0222,0.0342,,0.0320,0.0800, ,, , ,24.3551,,24.3505,,0.7073,83.7930,,,,1.2924E+03,,8.3071E+00,,16.0916,16.0919,0.0602,356.704,95.902,95.304,,,,,,,,,,,,
CalCOFI,2101RL,015,,2101_015d,18-Jan-2021 18:04:39,18-Jan-2021 10:04:39,30.51122,-122.25228,093.3 100.0,093.3,100.0,17.000,17.118,,16.0946,,16.0947,,16.0947,33.2163,,33.2221,33.2104,,33.2124,33.2173,5.4043,,5.6560,5.7045,5.3770,,5.7089,5.7192,5.7119,235.620,246.9072,248.9851,234.427,262.4655,249.6232,249.3042,0.0347,,0.0361,0.0825, ,, , ,24.3551,,24.3505,,0.7071,83.7972,,,,1.2756E+03,,6.7650E+00,,16.0920,16.0920,0.0638,356.732,95.956,95.467,,,,,,,,,,,,
CalCOFI,2101RL,015,,2101_015d,18-Jan-2021 18:04:42,18-Jan-2021 10:04:42,30.51122,-122.25229,093.3 100.0,093.3,100.0,18.000,18.125,,16.0942,,16.0946,,16.0944,33.2161,,33.2219,33.2102,,33.2122,33.2171,5.4032,,5.6549,5.7033,5.3839,,5.7162,5.7265,5.7149,235.569,246.8538,248.9316,234.731,262.4088,249.9464,249.4390,0.0343,,0.0329,0.0805, ,, , ,24.3551,,24.3505,,0.7072,83.7945,,,,1.3002E+03,,6.9095E+00,,16.0913,16.0918,0.0674,356.766,95.935,95.591,,,,,,,,,,,,
CalCOFI,2101RL,015,,2101_015d,18-Jan-2021 18:04:44,18-Jan-2021 10:04:44,30.51123,-122.25231,093.3 100.0,093.3,100.0,19.000,19.132,,16.0921,,16.0931,,16.0926,33.2161,,33.2219,33.2102,,33.2122,33.2171,5.3883,,5.6393,5.6877,5.3685,,5.6999,5.7101,5.6989,234.918,246.1724,248.2484,234.056,261.6849,249.2287,248.7386,0.0353,,0.0411,0.0854, ,, , ,24.3556,,24.3508,,0.7069,83.8012,,,,1.3036E+03,,6.6846E+00,,16.0892,16.0902,0.0710,356.754,95.666,95.313,,,,,,,,,,,,
CalCOFI,2101RL,015,,2101_015d,18-Jan-2021 18:04:46,18-Jan-2021 10:04:46,30.51124,-122.25232,093.3 100.0,093.3,100.0,20.000,20.139,,16.0934,,16.0935,,16.0935,33.2161,,33.2219,33.2101,,33.2121,33.2170,5.4025,,5.6542,5.7026,5.3620,,5.6930,5.7032,5.7029,235.539,246.8224,248.9001,233.772,262.3755,248.9267,248.9134,0.0347,,0.0361,0.0825, ,, , ,24.3554,,24.3507,,0.7075,83.7885,,,,1.3258E+03,,6.3629E+00,,16.0902,16.0904,0.0746,356.805,95.921,95.198,,,,,,,,,,,,
CalCOFI,2101RL,015,,2101_015d,18-Jan-2021 18:04:47,18-Jan-2021 10:04:47,30.51123,-122.25232,093.3 100.0,093.3,100.0,21.000,21.146,,16.0912,,16.0916,,16.0914,33.2159,,33.2217,33.2100,,33.2120,33.2169,5.4102,,5.6622,5.7107,5.3613,,5.6922,5.7025,5.7066,235.875,247.1742,249.2527,233.745,262.7491,248.8980,249.0754,0.0348,,0.0370,0.0829, ,, , ,24.3557,,24.3511,,0.7072,83.7953,,,,1.3139E+03,,6.1364E+00,,16.0879,16.0883,0.0782,356.804,96.054,95.183,,,,,,,,,,,,
CalCOFI,2101RL,015,,2101_015d,18-Jan-2021 18:04:49,18-Jan-2021 10:04:49,30.51122,-122.25232,093.3 100.0,093.3,100.0,22.000,22.153,,16.0900,,16.0906,,16.0903,33.2156,,33.2214,33.2098,,33.2118,33.2166,5.3949,,5.6462,5.6946,5.3581,,5.6888,5.6991,5.6969,235.209,246.4770,248.5538,233.603,262.0085,248.7470,248.6504,0.0357,,0.0443,0.0873, ,, , ,24.3558,,24.3512,,0.7074,83.7907,,,,1.2966E+03,,5.5883E+00,,16.0866,16.0871,0.0818,356.825,95.780,95.123,,,,,,,,,,,,
CalCOFI,2101RL,015,,2101_015d,18-Jan-2021 18:04:52,18-Jan-2021 10:04:52,30.51122,-122.25232,093.3 100.0,093.3,100.0,23.000,23.160,,16.0888,,16.0886,,16.0887,33.2155,,33.2213,33.2096,,33.2116,33.2165,5.4196,,5.6721,5.7205,5.3494,,5.6796,5.6899,5.7052,236.285,247.6033,249.6829,233.227,263.2050,248.3472,249.0151,0.0353,,0.0411,0.0854, ,, , ,24.3560,,24.3516,,0.7077,83.7845,,,,1.3027E+03,,5.5463E+00,,16.0852,16.0850,0.0854,356.836,96.216,94.966,,,,,,,,,,,,
CalCOFI,2101RL,015,,2101_015d,18-Jan-2021 18:04:54,18-Jan-2021 10:04:54,30.51122,-122.25232,093.3 100.0,093.3,100.0,24.000,24.167,,16.0887,,16.0890,,16.0889,33.2156,,33.2214,33.2096,,33.2116,33.2165,5.4086,,5.6605,5.7090,5.3551,,5.6857,5.6959,5.7025,235.805,247.1009,249.1792,233.473,262.6713,248.6088,248.8940,0.0362,,0.0484,0.0898, ,, , ,24.3561,,24.3515,,0.7082,83.7736,,,,1.3165E+03,,4.9642E+00,,16.0850,16.0852,0.0889,356.858,96.021,95.068,,,,,,,,,,,,
CalCOFI,2101RL,015,,2101_015d,18-Jan-2021 18:04:56,18-Jan-2021 10:04:56,30.51122,-122.25232,093.3 100.0,093.3,100.0,25.000,25.174,,16.0888,,16.0892,,16.0890,33.2156,,33.2214,33.2097,,33.2117,33.2166,5.4019,,5.6535,5.7020,5.3577,,5.6884,5.6987,5.7004,235.510,246.7921,248.8697,233.586,262.3432,248.7289,248.7993,0.0358,,0.0451,0.0878, ,, , ,24.3561,,24.3515,,0.7070,83.7991,,,,1.3302E+03,,4.7767E+00,,16.0849,16.0852,0.0925,356.888,95.901,95.114,25,,33.2089,5.669,247.31,0.130,0.039,,,,,
CalCOFI,2101RL,015,,2101_015d,18-Jan-2021 18:04:58,18-Jan-2021 10:04:58,30.51122,-122.25232,093.3 100.0,093.3,100.0,26.000,26.181,,16.0906,,16.0907,,16.0907,33.2157,,33.2215,33.2098,,33.2118,33.2167,5.3995,,5.6510,5.6994,5.3665,,5.6978,5.7080,5.7037,235.410,246.6874,248.7647,233.969,262.2320,249.1362,248.9505,0.0355,,0.0427,0.0864, ,, , ,24.3559,,24.3513,,0.7067,83.8051,,,,1.3458E+03,,4.6236E+00,,16.0865,16.0867,0.0961,356.943,95.863,95.273,,,,,,,,,,,,
CalCOFI,2101RL,015,,2101_015d,18-Jan-2021 18:05:00,18-Jan-2021 10:05:00,30.51122,-122.25232,093.3 100.0,093.3,100.0,27.000,27.188,,16.0900,,16.0896,,16.0898,33.2157,,33.2215,33.2096,,33.2116,33.2166,5.4029,,5.6546,5.7030,5.3614,,5.6923,5.7026,5.7028,235.557,246.8413,248.9190,233.750,262.3955,248.9033,248.9112,0.0362,,0.0484,0.0898, ,, , ,24.3560,,24.3515,,0.7073,83.7936,,,,1.3127E+03,,4.4270E+00,,16.0858,16.0854,0.0997,356.964,95.922,95.181,,,,,,,,,,,,
CalCOFI,2101RL,015,,2101_015d,18-Jan-2021 18:05:02,18-Jan-2021 10:05:02,30.51122,-122.25232,093.3 100.0,093.3,100.0,28.000,28.195,,16.0805,,16.0856,,16.0831,33.2145,,33.2203,33.2093,,33.2113,33.2158,5.3941,,5.6454,5.6938,5.3627,,5.6937,5.7040,5.6989,235.173,246.4393,248.5160,233.805,261.9685,248.9618,248.7389,0.0365,,0.0509,0.0913, ,, , ,24.3573,,24.3521,,0.7073,83.7923,,,,1.3005E+03,,4.2112E+00,,16.0762,16.0812,0.1033,356.875,95.747,95.196,,,,,,,,,,,,
CalCOFI,2101RL,015,,2101_015d,18-Jan-2021 18:05:05,18-Jan-2021 10:05:05,30.51122,-122.25233,093.3 100.0,093.3,100.0,29.000,29.202,,16.0517,,16.0540,,16.0529,33.2098,,33.2156,33.2042,,33.2062,33.2109,5.4061,,5.6579,5.7064,5.3580,,5.6887,5.6990,5.7027,235.693,246.9836,249.0617,233.597,262.5467,248.7406,248.9012,0.0370,,0.0550,0.0937, ,, , ,24.3603,,24.3554,,0.7088,83.7620,,,,1.3263E+03,,3.9716E+00,,16.0471,16.0494,0.1069,356.622,95.902,95.050,,,,,,,,,,,,
CalCOFI,2101RL,015,,2101_015d,18-Jan-2021 18:05:06,18-Jan-2021 10:05:06,30.51122,-122.25234,093.3 100.0,093.3,100.0,30.000,30.209,,16.0436,,16.0418,,16.0427,33.2082,,33.2140,33.2021,,33.2041,33.2091,5.3978,,5.6492,5.6977,5.3591,,5.6899,5.7002,5.6990,235.333,246.6068,248.6839,233.648,262.1464,248.7949,248.7394,0.0379,,0.0624,0.0981, ,, , ,24.3609,,24.3566,,0.7089,83.7594,,,,1.3330E+03,,3.9184E+00,,16.0389,16.0371,0.1105,356.595,95.740,95.047,,,,,,,,,,,,
CalCOFI,2101RL,015,,2101_015d,18-Jan-2021 18:05:07,18-Jan-2021 10:05:07,30.51122,-122.25234,093.3 100.0,093.3,100.0,31.000,31.216,,16.0337,,16.0320,,16.0329,33.2067,,33.2125,33.2007,,33.2027,33.2076,5.4103,,5.6623,5.7108,5.3599,,5.6907,5.7010,5.7059,235.878,247.1773,249.2558,233.681,262.7524,248.8300,249.0429,0.0373,,0.0574,0.0952, ,, , ,24.3621,,24.3578,,0.7091,83.7547,,,,1.3293E+03,,3.8639E+00,,16.0288,16.0271,0.1141,356.513,95.942,95.041,,,,,,,,,,,,
CalCOFI,2101RL,015,,2101_015d,18-Jan-2021 18:05:10,18-Jan-2021 10:05:10,30.51122,-122.25236,093.3 100.0,093.3,100.0,32.000,32.223,,16.0138,,16.0171,,16.0155,33.2032,,33.2090,33.1980,,33.2000,33.2045,5.4133,,5.6655,5.7139,5.3624,,5.6934,5.7037,5.7088,236.009,247.3144,249.3933,233.789,262.8981,248.9448,249.1691,0.0389,,0.0706,0.1030, ,, , ,24.3639,,24.3591,,0.7096,83.7436,,,,1.3399E+03,,3.6994E+00,,16.0088,16.0121,0.1177,356.371,95.956,95.056,,,,,,,,,,,,
CalCOFI,2101RL,015,,2101_015d,18-Jan-2021 18:05:14,18-Jan-2021 10:05:14,30.51122,-122.25236,093.3 100.0,093.3,100.0,33.000,33.230,,15.9749,,15.9757,,15.9753,33.1971,,33.2029,33.1914,,33.1934,33.1982,5.4176,,5.6700,5.7184,5.3773,,5.7092,5.7195,5.7190,236.196,247.5102,249.5895,234.439,263.1061,249.6359,249.6127,0.0391,,0.0722,0.1040, ,, , ,24.3679,,24.3634,,0.7116,83.7025,,,,1.3808E+03,,3.5462E+00,,15.9697,15.9705,0.1213,356.012,95.956,95.239,,,,,,,,,,,,
CalCOFI,2101RL,015,,2101_015d,18-Jan-2021 18:05:15,18-Jan-2021 10:05:15,30.51122,-122.25238,093.3 100.0,093.3,100.0,34.000,34.237,,15.9411,,15.9412,,15.9412,33.1926,,33.1984,33.1867,,33.1887,33.1936,5.4078,,5.6597,5.7082,5.3842,,5.7166,5.7268,5.7175,235.766,247.0600,249.1383,234.739,262.6279,249.9549,249.5466,0.0387,,0.0689,0.1020, ,, , ,24.3722,,24.3676,,0.7123,83.6887,,,,1.4649E+03,,3.3461E+00,,15.9358,15.9359,0.1249,355.637,95.715,95.295,,,,,,,,,,,,
CalCOFI,2101RL,015,,2101_015d,18-Jan-2021 18:05:17,18-Jan-2021 10:05:17,30.51122,-122.25238,093.3 100.0,093.3,100.0,35.000,35.244,,15.9175,,15.9180,,15.9178,33.1890,,33.1948,33.1837,,33.1857,33.1903,5.4147,,5.6669,5.7154,5.3799,,5.7120,5.7223,5.7189,236.068,247.3762,249.4552,234.551,262.9637,249.7550,249.6051,0.0396,,0.0763,0.1064, ,, , ,24.3747,,24.3706,,0.7128,83.6787,,,,1.5567E+03,,3.2159E+00,,15.9120,15.9125,0.1284,355.425,95.792,95.174,,,,,,,,,,,,
CalCOFI,2101RL,015,,2101_015d,18-Jan-2021 18:05:18,18-Jan-2021 10:05:18,30.51124,-122.25240,093.3 100.0,093.3,100.0,36.000,36.251,,15.8964,,15.8963,,15.8964,33.1863,,33.1921,33.1806,,33.1826,33.1874,5.4234,,5.6760,5.7245,5.3722,,5.7038,5.7141,5.7193,236.444,247.7698,249.8498,234.214,263.3818,249.3967,249.6233,0.0396,,0.0763,0.1064, ,, , ,24.3774,,24.3731,,0.7142,83.6471,,,,1.7144E+03,,3.1399E+00,,15.8908,15.8907,0.1320,355.198,95.903,94.994,,,,,,,,,,,,
CalCOFI,2101RL,015,,2101_015d,18-Jan-2021 18:05:21,18-Jan-2021 10:05:21,30.51124,-122.25241,093.3 100.0,093.3,100.0,37.000,37.258,,15.8325,,15.8471,,15.8398,33.1784,,33.1842,33.1734,,33.1754,33.1798,5.4310,,5.6840,5.7325,5.3926,,5.7255,5.7358,5.7342,236.773,248.1142,250.1950,235.102,263.7477,250.3409,250.2680,0.0401,,0.0804,0.1089, ,, , ,24.3857,,24.3786,,0.7167,83.5960,,,,2.0611E+03,,3.2331E+00,,15.8268,15.8413,0.1356,354.435,95.912,95.259,,,,,,,,,,,,
CalCOFI,2101RL,015,,2101_015d,18-Jan-2021 18:05:23,18-Jan-2021 10:05:23,30.51124,-122.25242,093.3 100.0,093.3,100.0,38.000,38.265,,15.7632,,15.7630,,15.7631,33.1686,,33.1744,33.1628,,33.1648,33.1696,5.4401,,5.6935,5.7420,5.4023,,5.7358,5.7461,5.7441,237.171,248.5308,250.6127,235.521,264.1903,250.7864,250.6996,0.0397,,0.0771,0.1069, ,, , ,24.3937,,24.3893,,0.7166,83.5992,,,,1.8162E+03,,3.7475E+00,,15.7573,15.7571,0.1392,353.698,95.937,95.265,,,,,,,,,,,,
CalCOFI,2101RL,015,,2101_015d,18-Jan-2021 18:05:24,18-Jan-2021 10:05:24,30.51123,-122.25242,093.3 100.0,093.3,100.0,39.000,39.273,,15.7425,,15.7438,,15.7432,33.1665,,33.1723,33.1610,,33.1630,33.1677,5.4558,,5.7099,5.7585,5.4070,,5.7408,5.7511,5.7548,237.853,249.2447,251.3284,235.728,264.9487,251.0065,251.1675,0.0402,,0.0812,0.1093, ,, , ,24.3968,,24.3922,,0.7170,83.5889,,,,1.9150E+03,,3.6893E+00,,15.7365,15.7377,0.1427,353.437,96.173,95.313,,,,,,,,,,,,
CalCOFI,2101RL,015,,2101_015d,18-Jan-2021 18:05:26,18-Jan-2021 10:05:26,30.51122,-122.25242,093.3 100.0,093.3,100.0,40.000,40.280,,15.7251,,15.7347,,15.7299,33.1654,,33.1712,33.1595,,33.1615,33.1664,5.4489,,5.7027,5.7513,5.4044,,5.7380,5.7483,5.7498,237.551,248.9286,251.0115,235.615,264.6128,250.8863,250.9489,0.0412,,0.0894,0.1142, ,, , ,24.3998,,24.3932,,0.7189,83.5501,,,,2.5066E+03,,3.5351E+00,,15.7189,15.7285,0.1463,353.178,96.017,95.249,,,,,,,,,,,,
CalCOFI,2101RL,015,,2101_015d,18-Jan-2021 18:05:29,18-Jan-2021 10:05:29,30.51122,-122.25244,093.3 100.0,093.3,100.0,41.000,41.287,,15.7002,,15.7008,,15.7005,33.1614,,33.1672,33.1556,,33.1576,33.1624,5.4590,,5.7133,5.7618,5.4074,,5.7412,5.7515,5.7567,237.990,249.3881,251.4721,235.744,265.1010,251.0235,251.2478,0.0415,,0.0919,0.1157, ,, , ,24.4023,,24.3978,,0.7169,83.5921,,,,2.7051E+03,,3.5708E+00,,15.6938,15.6944,0.1498,352.967,96.146,95.235,,,,,,,,,,,,
CalCOFI,2101RL,015,,2101_015d,18-Jan-2021 18:05:31,18-Jan-2021 10:05:31,30.51120,-122.25242,093.3 100.0,093.3,100.0,42.000,42.294,,15.6858,,15.6870,,15.6864,33.1600,,33.1658,33.1536,,33.1556,33.1607,5.4604,,5.7148,5.7633,5.4242,,5.7590,5.7693,5.7663,238.052,249.4530,251.5372,236.475,265.1700,251.8007,251.6690,0.0430,,0.1041,0.1230, ,, , ,24.4045,,24.3994,,0.7177,83.5757,,,,2.7188E+03,,3.5128E+00,,15.6794,15.6805,0.1534,352.794,96.143,95.504,,,,,,,,,,,,
CalCOFI,2101RL,015,,2101_015d,18-Jan-2021 18:05:34,18-Jan-2021 10:05:34,30.51119,-122.25239,093.3 100.0,093.3,100.0,43.000,43.301,,15.6661,,15.6657,,15.6659,33.1571,,33.1629,33.1515,,33.1535,33.1582,5.4585,,5.7128,5.7613,5.4170,,5.7514,5.7617,5.7615,237.968,249.3651,251.4491,236.162,265.0765,251.4679,251.4585,0.0442,,0.1140,0.1289, ,, , ,24.4067,,24.4025,,0.7174,83.5824,,,,2.7162E+03,,3.7263E+00,,15.6594,15.6590,0.1569,352.614,96.070,95.336,,,,,,,,,,,,
CalCOFI,2101RL,015,,2101_015d,18-Jan-2021 18:05:36,18-Jan-2021 10:05:36,30.51120,-122.25238,093.3 100.0,093.3,100.0,44.000,44.308,,15.6264,,15.6277,,15.6271,33.1523,,33.1581,33.1468,,33.1488,33.1535,5.4676,,5.7223,5.7709,5.4073,,5.7411,5.7514,5.7612,238.364,249.7796,251.8646,235.735,265.5169,251.0139,251.4393,0.0442,,0.1140,0.1289, ,, , ,24.4119,,24.4073,,0.7177,83.5744,,,,2.6975E+03,,3.5447E+00,,15.6196,15.6210,0.1605,352.143,96.152,95.090,,,,,,,,,,,,
CalCOFI,2101RL,015,,2101_015d,18-Jan-2021 18:05:37,18-Jan-2021 10:05:37,30.51121,-122.25238,093.3 100.0,093.3,100.0,45.000,45.315,,15.6086,,15.6093,,15.6090,33.1502,,33.1560,33.1445,,33.1465,33.1513,5.4625,,5.7170,5.7655,5.4052,,5.7389,5.7491,5.7573,238.140,249.5452,251.6295,235.645,265.2678,250.9182,251.2739,0.0453,,0.1230,0.1343, ,, , ,24.4143,,24.4097,,0.7192,83.5438,,,,2.6552E+03,,3.4304E+00,,15.6017,15.6023,0.1640,351.949,96.027,95.018,,,,,,,,,,,,
CalCOFI,2101RL,015,,2101_015d,18-Jan-2021 18:05:39,18-Jan-2021 10:05:39,30.51122,-122.25238,093.3 100.0,093.3,100.0,46.000,46.322,,15.5713,,15.5689,,15.5701,33.1454,,33.1512,33.1396,,33.1416,33.1464,5.4789,,5.7341,5.7827,5.4269,,5.7619,5.7722,5.7775,238.856,250.2947,252.3809,236.589,266.0640,251.9219,252.1514,0.0460,,0.1287,0.1377, ,, , ,24.4188,,24.4149,,0.7207,83.5128,,,,2.5510E+03,,3.1120E+00,,15.5642,15.5619,0.1676,351.540,96.242,95.321,,,,,,,,,,,,
CalCOFI,2101RL,015,,2101_015d,18-Jan-2021 18:05:40,18-Jan-2021 10:05:40,30.51123,-122.25240,093.3 100.0,093.3,100.0,47.000,47.329,,15.4945,,15.4928,,15.4937,33.1391,,33.1449,33.1320,,33.1340,33.1395,5.4677,,5.7224,5.7710,5.4268,,5.7618,5.7721,5.7716,238.364,249.7796,251.8646,236.581,265.5169,251.9134,251.8890,0.0480,,0.1451,0.1475, ,, , ,24.4310,,24.4259,,0.7259,83.4029,,,,2.3118E+03,,2.8019E+00,,15.4873,15.4856,0.1711,350.407,95.896,95.171,,,,,,,,,,,,
CalCOFI,2101RL,015,,2101_015d,18-Jan-2021 18:05:43,18-Jan-2021 10:05:43,30.51124,-122.25243,093.3 100.0,093.3,100.0,48.000,48.337,,15.4654,,15.4715,,15.4685,33.1298,,33.1356,33.1301,,33.1321,33.1339,5.4805,,5.7358,5.7844,5.4378,,5.7735,5.7838,5.7841,238.922,250.3637,252.4501,237.062,266.1374,252.4249,252.4375,0.0491,,0.1541,0.1529, ,, , ,24.4303,,24.4292,,0.7224,83.4757,,,,2.0092E+03,,2.5775E+00,,15.4581,15.4642,0.1746,350.499,96.059,95.323,,,,,,,,,,,,
CalCOFI,2101RL,015,,2101_015d,18-Jan-2021 18:05:45,18-Jan-2021 10:05:45,30.51124,-122.25244,093.3 100.0,093.3,100.0,49.000,49.344,,15.3886,,15.3886,,15.3886,33.1268,,33.1326,33.1211,,33.1231,33.1279,5.4947,,5.7507,5.7993,5.4509,,5.7874,5.7977,5.7985,239.539,251.0096,253.0976,237.629,266.8235,253.0277,253.0627,0.0483,,0.1476,0.1489, ,, , ,24.4449,,24.4406,,0.7234,83.4559,,,,1.8574E+03,,2.5185E+00,,15.3811,15.3811,0.1782,349.131,96.161,95.390,,,,,,,,,,,,
CalCOFI,2101RL,015,,2101_015d,18-Jan-2021 18:05:46,18-Jan-2021 10:05:46,30.51124,-122.25243,093.3 100.0,093.3,100.0,50.000,50.351,,15.3862,,15.3893,,15.3878,33.1269,,33.1327,33.1210,,33.1230,33.1279,5.5072,,5.7637,5.8124,5.4479,,5.7842,5.7945,5.8035,240.084,251.5801,253.6695,237.498,267.4296,252.8885,253.2790,0.0491,,0.1541,0.1529, ,, , ,24.4456,,24.4404,,0.7231,83.4614,,,,1.7574E+03,,2.2375E+00,,15.3786,15.3817,0.1817,349.095,96.375,95.339,,,,,,,,,,,,
CalCOFI,2101RL,015,,2101_015d,18-Jan-2021 18:05:51,18-Jan-2021 10:05:51,30.51124,-122.25242,093.3 100.0,093.3,100.0,51.000,51.358,,15.3700,,15.3707,,15.3704,33.1261,,33.1319,33.1205,,33.1225,33.1272,5.5041,,5.7605,5.8091,5.4700,,5.8077,5.8180,5.8136,239.949,251.4388,253.5279,238.460,267.2795,253.9113,253.7196,0.0500,,0.1615,0.1573, ,, , ,24.4486,,24.4441,,0.7236,83.4525,,,,1.8668E+03,,1.9477E+00,,15.3622,15.3629,0.1852,348.844,96.289,95.689,,,,,,,,,,,,